Location: Ffald-y-Brenin
(52.0833°N, 4.0000°W)
Time: 00:06:21
(UTC+00:00)

Sich 1 - Pass Details

Date: 18 February 2020
Orbit: 595 x 624 km, 82.5° (Epoch: 04 April)

Event Time Altitude Azimuth Distance (km) Brightness Sun altitude
Rises 06:45:32 0° 341° (NNW) 2,853 6.2 -6.9°
Reaches altitude 10° 06:47:56 10° 331° (NNW) 1,947 5.2 -6.6°
Maximum altitude 06:51:41 30° 270° (W) 1,086 3.8 -6.0°
Drops below altitude 10° 06:55:25 10° 209° (SSW) 1,942 5.4 -5.4°
Sets 06:57:49 0° 199° (SSW) 2,844 6.4 -5.1°
